[[{"header":{"parameterUnit":"m.s-1","parameterCategory":1,"la1":30.2991,"la2":30.254,"lo1":-89.0895,"lo2":-89.0444,"dy":0.0017,"dx":0.0017,"nx":28,"ny":28,"refTime":"2024-04-01T03:00:00:Z","depth":0,"parameterNumber":2,"parameterNumberName":"U-component_of_WINDS"},"data":[0,0,0,0,0,0,0,0,0,0,0,0,0,0,0,0,0,0,0,0,0,0,0,0,0,0,0,0,0,0,0,0,0,0,0,0,0,0,0,0,0,0,0,0,0,0,0,0,0,0,0,0,0,0,0,0,0,0,-1.4629,-1.4629,0,-1.464,-1.4641,-1.4641,-1.4629,-1.4628,-1.4628,-1.4627,-1.4639,-1.464,-1.4641,0,0,0,0,0,0,0,0,0,0,0,0,0,-1.4599,-1.4599,-1.4629,-1.4629,-1.4629,-1.464,-1.4641,-1.4641,-1.4629,-1.4628,-1.4628,-1.4627,-1.4639,-1.464,-1.4641,0,0,0,0,0,0,0,0,0,0,0,0,0,-1.4611,-1.46,-1.4629,-1.4625,-1.4625,-1.464,-1.4641,-1.4641,-1.4629,-1.4628,-1.4628,-1.4627,-1.4639,-1.464,-1.4641,-1.4662,0,0,-1.4644,-1.4645,0,0,0,0,0,0,0,0,-1.4611,-1.4612,-1.4625,-1.4625,-1.4625,-1.4632,-1.4634,-1.4648,-1.4629,-1.4627,-1.4627,-1.4627,-1.4638,-1.4639,-1.4642,-1.4662,-1.4663,-1.4645,-1.4645,-1.4646,-1.4646,0,0,0,0,0,0,0,-1.461,-1.4612,-1.4634,-1.4625,-1.4625,-1.4623,-1.4624,-1.4637,-1.4636,-1.4627,-1.4627,-1.4628,-1.4637,-1.4641,-1.4643,-1.4663,-1.4644,-1.4645,-1.4646,-1.4647,-1.4702,-1.4702,0,0,0,0,0,0,-1.4609,-1.4611,-1.4633,-1.4634,-1.4616,-1.4624,-1.4625,-1.4631,-1.4636,-1.4636,-1.4629,-1.4627,-1.464,-1.4641,-1.4643,-1.4668,-1.4646,-1.4647,-1.4647,-1.4701,-1.4702,-1.4703,0,0,0,0,0,0,-1.4609,-1.4611,-1.4633,-1.4622,-1.4625,-1.4625,-1.4632,-1.4631,-1.4635,-1.4637,-1.4637,-1.4633,-1.4639,-1.4641,-1.4657,-1.4668,-1.4647,-1.4648,-1.47,-1.4701,-1.4702,-1.4717,0,0,0,0,0,0,-1.4608,-1.4611,-1.4618,-1.4623,-1.4625,-1.4646,-1.4632,-1.4632,-1.4637,-1.4636,-1.4641,-1.4641,-1.4639,-1.4656,-1.4658,-1.4669,-1.4649,-1.4699,-1.47,-1.4702,-1.4716,-1.4719,-1.4721,0,0,0,0,0,-1.4607,-1.4622,-1.4619,-1.4622,-1.4635,-1.4647,-1.4649,-1.4646,-1.4638,-1.4646,-1.4647,-1.4641,-1.4667,-1.4657,-1.466,-1.4672,-1.4698,-1.47,-1.4702,-1.4714,-1.4718,-1.4721,0,0,0,0,0,0,-1.4619,-1.4622,-1.4619,-1.4636,-1.4641,-1.4645,-1.4654,-1.465,-1.4657,-1.4656,-1.4653,-1.4654,-1.4671,-1.4673,-1.4663,-1.4693,-1.4681,-1.4684,-1.469,-1.4693,-1.4696,-1.4694,-1.465,0,0,0,0,0,-1.4624,-1.4633,-1.4636,-1.4651,-1.4654,-1.4654,-1.4659,-1.4657,-1.4662,-1.4664,-1.4667,-1.4672,-1.4682,-1.4688,-1.4697,-1.4717,-1.4718,-1.4726,-1.4729,-1.4731,-1.4733,-1.4744,-1.4747,-1.4708,-1.4708,-1.4708,0,0,-1.4633,-1.4636,-1.4642,-1.4653,-1.4657,-1.4667,-1.4656,-1.4667,-1.4674,-1.4666,-1.4681,-1.4683,-1.469,-1.4708,-1.4716,-1.471,-1.4744,-1.4733,-1.4735,-1.4736,-1.4746,-1.475,-1.4753,-1.471,-1.4709,-1.4709,0,0,-1.4656,-1.4659,-1.4672,-1.4676,-1.4683,-1.4683,-1.4686,-1.4691,-1.4692,-1.4707,-1.4701,-1.4711,-1.4727,-1.4732,-1.4737,-1.4764,-1.4758,-1.4767,-1.4781,-1.4791,-1.4795,-1.4797,-1.4806,-1.481,-1.4769,-1.4769,-1.4769,0,-1.4667,-1.4681,-1.4679,-1.4691,-1.4696,-1.469,-1.4703,-1.4708,-1.4717,-1.4721,-1.4714,-1.4736,-1.4739,-1.4758,-1.4765,-1.4769,-1.4773,-1.4765,-1.4794,-1.4797,-1.4799,-1.4808,-1.4811,-1.477,-1.477,-1.477,-1.477,0,-1.4695,-1.4705,-1.4715,-1.4724,-1.473,-1.4743,-1.4743,-1.475,-1.4748,-1.4749,-1.4766,-1.477,-1.478,-1.4785,-1.4783,-1.4804,-1.4801,-1.4795,-1.4783,-1.4804,-1.4812,-1.4815,-1.4771,-1.4771,-1.4771,-1.477,0,0,-1.4722,-1.4731,-1.4735,-1.4739,-1.4746,-1.4755,-1.4768,-1.4778,-1.4784,-1.4791,-1.4801,-1.4817,-1.4811,-1.4817,-1.4816,-1.4825,-1.4846,-1.4818,-1.4818,-1.4822,-1.487,-1.4873,-1.4877,-1.4843,-1.4844,-1.4844,-1.4869,0,-1.4744,-1.4766,-1.4766,-1.4786,-1.4796,-1.4791,-1.4803,-1.4809,-1.4811,-1.482,-1.4823,-1.4833,-1.4826,-1.4829,-1.4839,-1.4841,-1.4855,-1.484,-1.4853,-1.4853,-1.485,-1.4881,-1.4885,-1.4907,-1.4872,-1.4873,-1.4873,0,-1.4772,-1.478,-1.4802,-1.4808,-1.4813,-1.4823,-1.4832,-1.4841,-1.4849,-1.485,-1.4857,-1.4854,-1.4868,-1.4858,-1.4877,-1.4867,-1.4873,-1.4875,-1.4876,-1.4876,-1.4863,-1.4881,-1.4915,-1.4918,-1.4878,-1.4878,-1.4877,0,-1.479,-1.4806,-1.4821,-1.4825,-1.4834,-1.4841,-1.4845,-1.4852,-1.4858,-1.4867,-1.4871,-1.4882,-1.4887,-1.4896,-1.4897,-1.4889,-1.4916,-1.4906,-1.4917,-1.4917,-1.4921,-1.4921,-1.4955,-1.4927,-1.4927,-1.4927,-1.4927,0,-1.4813,-1.4826,-1.4829,-1.4838,-1.4853,-1.4853,-1.4868,-1.4872,-1.4878,-1.4888,-1.4886,-1.4895,-1.4897,-1.4907,-1.4908,-1.4924,-1.4927,-1.4928,-1.4928,-1.4927,-1.4927,-1.493,-1.4928,-1.4928,-1.4928,-1.4928,-1.4928,0,-1.4834,-1.4836,-1.4852,-1.486,-1.4862,-1.4873,-1.4879,-1.4888,-1.4891,-1.4904,-1.4907,-1.4911,-1.4923,-1.4926,-1.494,-1.4941,-1.496,-1.4959,-1.4957,-1.4956,-1.4967,-1.4966,-1.5003,-1.5008,-1.4978,-1.4979,-1.4979,0,-1.4848,-1.4858,-1.4867,-1.4873,-1.4878,-1.4888,-1.4895,-1.4897,-1.4904,-1.4914,-1.4922,-1.4934,-1.4943,-1.4963,-1.4968,-1.4979,-1.4977,-1.499,-1.4979,-1.4978,-1.4977,-1.4975,-1.4976,-1.4992,-1.4992,-1.4992,-1.4992,0,-1.4873,-1.4874,-1.4883,-1.4894,-1.4902,-1.491,-1.4918,-1.4924,-1.4927,-1.4935,-1.4947,-1.4955,-1.497,-1.4982,-1.4994,-1.4998,-1.4996,-1.4996,-1.4999,-1.4998,-1.4996,-1.4996,-1.4961,-1.4995,-1.4994,-1.4994,-1.4994,-1.4994,-1.489,-1.4899,-1.4906,-1.4917,-1.4924,-1.4932,-1.494,-1.4945,-1.4955,-1.4967,-1.4968,-1.4982,-1.4991,-1.5006,-1.5012,-1.5023,-1.5019,-1.5023,-1.5024,-1.5025,-1.5026,-1.4996,-1.5025,-1.5025,-1.5025,-1.5025,-1.5025,0,-1.4913,-1.4919,-1.4929,-1.494,-1.4949,-1.4947,-1.4956,-1.4964,-1.4976,-1.4984,-1.4994,-1.5009,-1.5021,-1.5027,-1.5039,-1.5047,-1.5046,-1.505,-1.5049,-1.505,-1.5029,-1.5024,-1.505,-1.505,-1.505,-1.505,-1.505,-1.505,-1.4927,-1.4941,-1.4944,-1.4962,-1.4967,-1.498,-1.4986,-1.4993,-1.5,-1.5017,-1.5027,-1.5031,-1.5039,-1.5052,-1.5063,-1.5065,-1.5069,-1.5073,-1.5074,-1.5054,-1.5051,-1.5049,-1.5044,-1.5074,-1.5074,-1.5094,-1.5094,-1.5095]},{"header":{"parameterUnit":"m.s-1","parameterCategory":1,"la1":30.2991,"la2":30.254,"lo1":-89.0895,"lo2":-89.0444,"dy":0.0017,"dx":0.0017,"nx":28,"ny":28,"refTime":"2024-04-01T03:00:00:Z","depth":0,"parameterNumber":3,"parameterNumberName":"V-component_of_WINDS"},"data":[0,0,0,0,0,0,0,0,0,0,0,0,0,0,0,0,0,0,0,0,0,0,0,0,0,0,0,0,0,0,0,0,0,0,0,0,0,0,0,0,0,0,0,0,0,0,0,0,0,0,0,0,0,0,0,0,0,0,5.4825,5.4825,0,5.4843,5.4843,5.4844,5.4779,5.4777,5.4775,5.4773,5.4788,5.4791,5.4793,0,0,0,0,0,0,0,0,0,0,0,0,0,5.4731,5.4733,5.4825,5.4825,5.4825,5.4843,5.4843,5.4844,5.4779,5.4777,5.4775,5.4772,5.4788,5.479,5.4793,0,0,0,0,0,0,0,0,0,0,0,0,0,5.4763,5.4734,5.4825,5.4796,5.4793,5.4843,5.4843,5.4844,5.478,5.4777,5.4774,5.4771,5.4787,5.479,5.4793,5.4871,0,0,5.4803,5.4805,0,0,0,0,0,0,0,0,5.4761,5.4766,5.48,5.4798,5.4795,5.4806,5.4816,5.4853,5.4781,5.4785,5.4773,5.477,5.4796,5.4799,5.4808,5.4872,5.4873,5.4804,5.4806,5.4807,5.4808,0,0,0,0,0,0,0,5.4759,5.4765,5.4832,5.48,5.4797,5.478,5.4782,5.4822,5.4806,5.4784,5.478,5.4783,5.4794,5.4805,5.4808,5.4873,5.4804,5.4806,5.4808,5.481,5.5003,5.5006,0,0,0,0,0,0,5.4761,5.4764,5.4831,5.4832,5.4771,5.4784,5.4786,5.4805,5.4806,5.4803,5.4785,5.478,5.4801,5.4804,5.4808,5.4902,5.4807,5.481,5.4812,5.5,5.5004,5.5007,0,0,0,0,0,0,5.4759,5.4768,5.4831,5.4797,5.4804,5.4789,5.4811,5.4807,5.4818,5.4807,5.4803,5.48,5.4799,5.4804,5.4857,5.4901,5.4812,5.4815,5.4996,5.5001,5.5005,5.5088,0,0,0,0,0,0,5.4757,5.4767,5.4798,5.4798,5.4806,5.488,5.4814,5.481,5.4824,5.4817,5.4819,5.4817,5.4797,5.4852,5.486,5.4904,5.4817,5.4992,5.4998,5.5004,5.5081,5.5095,5.5107,0,0,0,0,0,5.4754,5.4819,5.48,5.4808,5.4844,5.4883,5.4887,5.4864,5.4828,5.4858,5.4851,5.4817,5.4895,5.4858,5.4866,5.4912,5.4989,5.4996,5.5003,5.5075,5.5092,5.5106,0,0,0,0,0,0,5.4823,5.4819,5.4797,5.4865,5.4875,5.4872,5.4909,5.4882,5.4902,5.4894,5.4864,5.4865,5.4923,5.4922,5.4882,5.4988,5.4935,5.4945,5.4988,5.5003,5.5016,5.5016,5.482,0,0,0,0,0,5.4846,5.488,5.4873,5.4933,5.494,5.4924,5.494,5.4922,5.493,5.4934,5.493,5.4939,5.4966,5.4984,5.5007,5.508,5.508,5.5115,5.5128,5.5138,5.5147,5.5187,5.5203,5.503,5.503,5.503,0,0,5.4894,5.4896,5.4919,5.4948,5.4953,5.4988,5.4928,5.4966,5.4992,5.4939,5.499,5.4988,5.4995,5.5059,5.5087,5.506,5.5195,5.5147,5.5156,5.5159,5.5196,5.5213,5.5227,5.5035,5.5034,5.5033,0,0,5.5001,5.5005,5.5057,5.5064,5.5074,5.5063,5.5075,5.5076,5.5074,5.5124,5.5086,5.5115,5.5161,5.5169,5.5178,5.5288,5.5258,5.5296,5.5364,5.5403,5.5417,5.5429,5.547,5.5485,5.5305,5.5305,5.5305,0,5.5059,5.5112,5.5086,5.5129,5.5143,5.5098,5.515,5.5157,5.5174,5.5185,5.5154,5.5212,5.5214,5.528,5.5307,5.5315,5.5329,5.5297,5.5417,5.5429,5.544,5.5479,5.5494,5.531,5.5309,5.5309,5.5308,0,5.5184,5.5221,5.5261,5.5281,5.5299,5.5346,5.5327,5.5348,5.5328,5.532,5.5372,5.5373,5.5397,5.541,5.539,5.5474,5.5457,5.5422,5.5369,5.5461,5.5498,5.5512,5.5317,5.5315,5.5313,5.5312,0,0,5.5336,5.5341,5.5357,5.5366,5.5374,5.5401,5.5445,5.547,5.549,5.5502,5.554,5.558,5.5548,5.556,5.554,5.5574,5.5664,5.5535,5.5535,5.5561,5.5758,5.5787,5.5804,5.5642,5.5645,5.5647,5.5758,0,5.5442,5.5522,5.55,5.5578,5.5613,5.557,5.5609,5.5618,5.5611,5.5638,5.5629,5.566,5.5615,5.5622,5.5653,5.5646,5.5703,5.5637,5.5678,5.568,5.5681,5.5823,5.5853,5.5958,5.5772,5.5774,5.5776,0,5.5578,5.5599,5.5681,5.5685,5.5698,5.5734,5.5756,5.5782,5.5791,5.5783,5.5797,5.577,5.5813,5.5758,5.5818,5.5774,5.5788,5.5787,5.5791,5.5796,5.5736,5.5834,5.599,5.6007,5.5798,5.5796,5.5794,0,5.5684,5.5732,5.5788,5.5796,5.5801,5.5828,5.5831,5.5836,5.5853,5.5871,5.5882,5.5904,5.5917,5.5934,5.5914,5.5875,5.5978,5.592,5.5974,5.5975,5.6,5.5999,5.6163,5.6005,5.6004,5.6004,5.6004,0,5.5807,5.586,5.5836,5.5871,5.5929,5.5903,5.596,5.5958,5.5964,5.5997,5.5959,5.5991,5.5961,5.599,5.5974,5.6027,5.6032,5.6028,5.6024,5.6033,5.6034,5.6045,5.6038,5.6008,5.6007,5.6006,5.6006,0,5.5937,5.5923,5.5982,5.5982,5.5983,5.6026,5.6025,5.6057,5.6048,5.609,5.6098,5.6083,5.6115,5.6096,5.6128,5.6117,5.6188,5.6172,5.6186,5.6183,5.6239,5.6235,5.6418,5.6441,5.6265,5.6267,5.6268,0,5.6018,5.6058,5.6063,5.6084,5.609,5.6123,5.6141,5.6115,5.6135,5.6148,5.6179,5.6208,5.623,5.6283,5.6275,5.6299,5.6285,5.6347,5.6289,5.6298,5.6289,5.6289,5.6294,5.636,5.6362,5.6364,5.6365,0,5.6165,5.6156,5.6184,5.621,5.6232,5.625,5.6265,5.6284,5.6259,5.6282,5.6316,5.6333,5.6367,5.6397,5.6417,5.6419,5.6389,5.6383,5.6398,5.6409,5.6417,5.6417,5.6222,5.638,5.6379,5.6377,5.6377,5.6376,5.6275,5.6309,5.6319,5.6351,5.636,5.6375,5.6406,5.6401,5.6429,5.6456,5.6438,5.6478,5.6485,5.6511,5.6516,5.6547,5.6521,5.6541,5.6547,5.6553,5.6562,5.641,5.655,5.6549,5.6549,5.6548,5.6548,0,5.6422,5.6426,5.6456,5.648,5.6505,5.6474,5.649,5.6513,5.6549,5.6559,5.6582,5.6621,5.665,5.6643,5.6669,5.6695,5.6682,5.6703,5.6702,5.6704,5.6582,5.6568,5.6713,5.6713,5.6713,5.6713,5.6713,5.6713,5.6502,5.656,5.6552,5.6614,5.6617,5.6657,5.6669,5.6683,5.6691,5.6737,5.6761,5.6757,5.676,5.6786,5.6811,5.6809,5.6821,5.6848,5.6841,5.6728,5.6712,5.6696,5.6684,5.685,5.685,5.696,5.6961,5.6962]}]]